Printer-friendly version

IAU Minor Planet Center

Minor Planet Center

MPEC 2006-P48 : 2006 PW

The following Minor Planet Electronic Circular may be linked-to from your own Web pages, but must not otherwise be redistributed electronically.


Read MPEC 2006-P47 Read MPEC 2006-P49


M.P.E.C. 2006-P48                                Issued 2006 Aug. 14, 13:41 UT

     The Minor Planet Electronic Circulars contain information on unusual
         minor planets and routine data on comets.  They are published
   on behalf of Commission 20 of the International Astronomical Union by the
          Minor Planet Center, Smithsonian Astrophysical Observatory,
                          Cambridge, MA 02138, U.S.A.

                  Supported in part by the Brinson Foundation
                  Supported in part by the TABASGO Foundation
             Prepared using the Tamkin Foundation Computer Network

                              MPC@CFA.HARVARD.EDU
          URL http://cfa-www.harvard.edu/iau/mpc.html  ISSN 1523-6714

                                    2006 PW

Observations:
     K06P00W* C2006 08 12.23928 20 50 56.24 -22 15 37.2          18.7 R EP048644
     K06P00W  C2006 08 12.25968 20 50 52.26 -22 16 31.4          18.7 R EP048644
     K06P00W  C2006 08 12.28036 20 50 48.21 -22 17 26.6          18.9 R EP048644
     K06P00W  C2006 08 13.09243 20 48 11.93 -22 53 29.7          18.0 R EP048I77
     K06P00W  C2006 08 13.09308 20 48 11.93 -22 53 33.5          18.2 R EP048I77
     K06P00W  C2006 08 13.09653 20 48 11.06 -22 53 41.1          18.4 R EP048I77
     K06P00W  C2006 08 13.27226 20 47 36.96 -23 01 43.6          19.0 R EP048644
     K06P00W  C2006 08 13.28955 20 47 33.53 -23 02 30.1          18.8 R EP048644
     K06P00W  C2006 08 13.30801 20 47 29.82 -23 03 19.7          19.0 R EP048644
     K06P00W  C2006 08 13.58155 20 46 36.13 -23 15 22.7          18.7 V EP048428
     K06P00W  C2006 08 13.58849 20 46 34.76 -23 15 40.5          18.7 V EP048428
     K06P00W  C2006 08 14.08880 20 44 56.37 -23 38 11.2          18.5 R EP048I77
     K06P00W  C2006 08 14.09373 20 44 55.32 -23 38 24.9          18.6 R EP048I77
     K06P00W  C2006 08 14.09866 20 44 54.34 -23 38 37.8          18.6 R EP048I77

Observer details:
428 Reedy Creek.  Observer J. Broughton.  0.51-m f/2.7 reflector + CCD.
644 Palomar Mountain/NEAT.  Observers M. Brown, R. Bambery, K. Lawrence,
    M. Hicks, E. Helin, R. Thicksten.  1.2-m Schmidt + CCD.
I77 CEAMIG-REA Observatory, Belo Horizonte.  Observers C. Jacques, E. Pimentel.
    Measurer C. Jacques.  0.30-m f/3.0 Schmidt-Cassegrain + CCD.

Orbital elements:
2006 PW                                                  Earth MOID = 0.3176 AU
Epoch 2006 Sept. 22.0 TT = JDT 2454000.5                MPC
M 314.14619              (2000.0)            P               Q
n   0.60752896     Peri.  324.99146     -0.21839079     -0.87750703
a   1.3806748      Node   133.02372     +0.97418456     -0.22167946
e   0.6514572      Incl.   35.73286     +0.05718309     +0.42525242
P   1.62           H   18.2           G   0.15           U   9
Residuals in seconds of arc
060812 644  0.2-  0.3-    060813 I77  0.3+  0.3-    060813 428  0.1-  0.4+
060812 644  0.1-  0.2+    060813 644  0.4-  0.1-    060814 I77  0.3+  0.2+
060812 644  0.1-  0.3+    060813 644  0.1+  0.1-    060814 I77  0.3-  0.2-
060813 I77  1.0+  0.1+    060813 644  0.1-  0.1-    060814 I77  0.1+  0.2+
060813 I77 (2.8+  2.0-)   060813 428  0.5-  0.4-

Ephemeris:
2006 PW                  a,e,i = 1.38, 0.65, 36                  q = 0.4812
Date    TT    R. A. (2000) Decl.     Delta      r     Elong.  Phase     V
2006 08 13    20 48.50   -22 49.3    0.625    1.629   167.4     7.8    18.8
2006 08 23    20 13.32   -30 16.2    0.596    1.548   147.7    20.4    19.0
2006 09 02    19 35.77   -36 51.6    0.601    1.462   128.7    32.6    19.3
2006 09 12    19 01.33   -41 55.5    0.628    1.369   111.7    43.1    19.5
2006 09 22    18 33.48   -45 38.5    0.664    1.269    97.0    51.7    19.7
2006 10 02    18 12.65   -48 31.5    0.699    1.163    84.3    58.9    19.9
2006 10 12    17 56.64   -51 00.4    0.723    1.050    73.2    65.5    19.9
2006 10 22    17 41.59   -53 17.3    0.730    0.930    63.0    72.5    19.9

Kyle E. Smalley              (C) Copyright 2006 MPC           M.P.E.C. 2006-P48

Read MPEC 2006-P47 Read MPEC 2006-P49


Our Web policy. Index to the CBAT/MPC/ICQ pages.


Valid HTML 4.01!